Weather History for Moffett NAS, CA

Change the Weather History Date:

Tuesday, March 13, 2007

  Actual Average Record
Temperature  
Mean Temperature 64 °F 56 °F  
Max Temperature 73 °F 65 °F 82 °F (2004)
Min Temperature 55 °F 47 °F 32 °F (1950)
Degree Days  
Heating Degree Days 1    
Month to date heating degree days  
Since 1 July heating degree days  
Cooling Degree Days 0    
Month to date cooling degree days  
Year to date cooling degree days  
Growing Degree Days 14 (Base 50)    
Moisture  
Dew Point 54 °F    
Average Humidity 76    
Maximum Humidity 90    
Minimum Humidity 55    
Precipitation  
Precipitation 0.00 in 0.09 in 0.62 in (1975)
Month to date precipitation 1.10  
Year to date precipitation 6.92  
Since 1 July precipitation 11.97  
Sea Level Pressure  
Sea Level Pressure 30.06 in    
Wind  
Wind Speed 4 mph (North)    
Max Wind Speed 14 mph    
Max Gust Speed -    
Visibility 10 miles    
Events      
T = Trace of Precipitation, MM = Missing Value Source: NWS Daily Summary

Daily Weather History Graph

Daily Weather History Graph

Search for Another Location

Airport:

Trip Planner

Search our weather history database for the weather conditions in past years. The results will help you decide how hot, cold, wet, or windy it might be!

Date:

Astronomy

Mar. 13, 2007 Rise Set
Actual Time 7:22 AM PDT 7:13 PM PDT
Civil Twilight 6:56 AM PDT 7:39 PM PDT
Nautical Twilight 6:26 AM PDT 8:09 PM PDT
Astronomical Twilight 5:55 AM PDT 8:40 PM PDT
Moon 3:57 AM PDT (3/13) 1:06 PM PDT (3/13)
Length of Visible Light 12h 42m
Length of Day
11h 50m
Waning Crescent, 34% of the Moon is Illuminated
Mar 13
Waning Crescent
Mar 18
New
Mar 25
First Quarter
Apr 2
Full
Apr 10
Last Quarter

Hourly Weather History & Observations

Time (PDT) Temp. Dew Point Humidity Pressure Visibility Wind Dir Wind Speed Gust Speed Precip Events Conditions
12:56 AM 60.1 °F 55.0 °F 83% 30.04 in 10.0 mi North 3.5 mph - N/A   Clear
1:56 AM 59.0 °F 55.0 °F 87% 30.04 in 10.0 mi Calm Calm - N/A   Clear
2:56 AM 59.0 °F 54.0 °F 83% 30.04 in 10.0 mi Calm Calm - N/A   Clear
3:56 AM 55.9 °F 53.1 °F 90% 30.03 in 10.0 mi Calm Calm - N/A   Clear
4:56 AM 55.9 °F 53.1 °F 90% 30.02 in 10.0 mi Calm Calm - N/A   Clear
5:56 AM 55.0 °F 52.0 °F 89% 30.03 in 10.0 mi Calm Calm - N/A   Clear
6:56 AM 55.9 °F 51.1 °F 84% 30.03 in 10.0 mi Calm Calm - N/A   Clear
7:56 AM 55.9 °F 51.1 °F 84% 30.05 in 10.0 mi Calm Calm - N/A   Clear
8:56 AM 59.0 °F 53.1 °F 81% 30.06 in 10.0 mi North 3.5 mph - N/A   Clear
9:56 AM 63.0 °F 55.9 °F 78% 30.07 in 10.0 mi Calm Calm - N/A   Clear
10:56 AM 64.9 °F 57.0 °F 75% 30.09 in 10.0 mi North 6.9 mph - N/A   Clear
11:56 AM 68.0 °F 55.9 °F 65% 30.07 in 10.0 mi Variable 4.6 mph - N/A   Clear
12:56 PM 73.0 °F 55.9 °F 55% 30.05 in 10.0 mi North 3.5 mph - N/A   Clear
1:56 PM 71.1 °F 55.9 °F 59% 30.05 in 10.0 mi North 13.8 mph - 0.00 in   Clear
2:56 PM 69.1 °F 54.0 °F 58% 30.04 in 10.0 mi NNW 11.5 mph - N/A   Clear
3:56 PM 68.0 °F 55.9 °F 65% 30.03 in 10.0 mi North 13.8 mph - N/A   Clear
4:56 PM 68.0 °F 55.0 °F 63% 30.04 in 10.0 mi North 12.7 mph - N/A   Clear
5:56 PM 64.9 °F 54.0 °F 68% 30.04 in 10.0 mi NNW 9.2 mph - N/A   Clear
6:56 PM 62.1 °F 54.0 °F 75% 30.05 in 10.0 mi NNW 9.2 mph - N/A   Clear
7:56 PM 59.0 °F 54.0 °F 83% 30.06 in 10.0 mi North 8.1 mph - N/A   Clear
8:56 PM 57.9 °F 52.0 °F 81% 30.09 in 10.0 mi NW 5.8 mph - N/A   Clear
9:56 PM 55.9 °F 50.0 °F 80% 30.10 in 10.0 mi NE 3.5 mph - N/A   Clear
10:56 PM 55.0 °F 48.9 °F 80% 30.12 in 10.0 mi North 10.4 mph - N/A   Clear
11:56 PM 55.0 °F 48.9 °F 80% 30.12 in 10.0 mi North 3.5 mph - N/A   Clear